Location: *
(48.4333°N, 5.0333°W)
Time: 01:48:58
(UTC+00:00)

LilacSat-2 - Pass Details

Date: 28 October 2021
Orbit: 511 x 532 km, 97.5° (Epoch: 01 December)

Event Time Altitude Azimuth Distance (km) Brightness Sun altitude
Rises 05:14:32 0° 28° (NNE) 2,635 ? -18.0°
Reaches altitude 10° 05:17:13 10° 49° (NE) 1,744 ? -17.6°
Maximum altitude 05:19:45 17° 92° (E) 1,349 ? -17.1°
Drops below altitude 10° 05:22:16 10° 134° (SE) 1,736 ? -16.7°
Sets 05:24:56 0° 155° (SSE) 2,620 ? -16.3°
